Time,TemperatureF,DewpointF,PressureIn,WindDirection,WindDirectionDegrees,WindSpeedMPH,WindSpeedGustMPH,Humidity,HourlyPrecipIn,Conditions,Clouds,dailyrainin,SoftwareType,DateUTC
2013-05-11 00:05:00,52.3,48.0,30.15,West,270,0.0,0.0,85,0.00,,---,0.00,VWS V14.01,2013-05-11 05:05:00,
2013-05-11 00:10:00,52.2,47.8,30.15,West,270,0.0,0.0,85,0.00,,---,0.00,VWS V14.01,2013-05-11 05:10:00,
2013-05-11 00:15:00,51.8,47.4,30.15,West,270,0.0,0.0,85,0.00,,---,0.00,VWS V14.01,2013-05-11 05:15:00,
2013-05-11 00:20:00,51.4,47.4,30.15,West,270,0.0,0.0,86,0.00,,---,0.00,VWS V14.01,2013-05-11 05:20:00,
2013-05-11 00:26:00,51.4,47.1,30.15,West,270,0.0,0.0,85,0.00,,---,0.00,VWS V14.01,2013-05-11 05:26:00,
2013-05-11 00:31:00,51.4,47.1,30.15,West,270,0.0,0.0,85,0.00,,---,0.00,VWS V14.01,2013-05-11 05:31:00,
2013-05-11 00:36:00,51.3,47.2,30.15,West,270,0.0,0.0,86,0.00,,---,0.00,VWS V14.01,2013-05-11 05:36:00,
2013-05-11 00:41:00,51.1,47.0,30.15,West,270,0.0,0.0,86,0.00,,---,0.00,VWS V14.01,2013-05-11 05:41:00,
2013-05-11 00:47:00,50.7,47.0,30.18,West,270,0.0,0.0,87,0.00,,---,0.00,VWS V14.01,2013-05-11 05:47:00,
2013-05-11 00:52:00,50.5,46.8,30.18,West,270,0.0,0.0,87,0.00,,---,0.00,VWS V14.01,2013-05-11 05:52:00,
2013-05-11 00:58:00,50.2,46.5,30.21,West,270,0.0,0.0,87,0.00,,---,0.00,VWS V14.01,2013-05-11 05:58:00,
2013-05-11 01:04:00,50.2,46.8,30.21,West,270,0.0,0.0,88,0.00,,---,0.00,VWS V14.01,2013-05-11 06:04:00,
2013-05-11 01:09:00,50.0,46.6,30.21,West,270,0.0,0.0,88,0.00,,---,0.00,VWS V14.01,2013-05-11 06:09:00,
2013-05-11 01:15:00,49.8,46.7,30.18,West,270,0.0,0.0,89,0.00,,---,0.00,VWS V14.01,2013-05-11 06:15:00,
2013-05-11 01:20:00,49.5,46.4,30.18,West,270,0.0,0.0,89,0.00,,---,0.00,VWS V14.01,2013-05-11 06:20:00,
2013-05-11 01:26:00,49.5,46.7,30.18,West,270,0.0,0.0,90,0.00,,---,0.00,VWS V14.01,2013-05-11 06:26:00,
2013-05-11 01:32:00,49.6,47.1,30.18,West,270,0.0,0.0,91,0.00,,---,0.00,VWS V14.01,2013-05-11 06:32:00,
2013-05-11 01:37:00,49.6,47.1,30.18,West,270,0.0,0.0,91,0.00,,---,0.00,VWS V14.01,2013-05-11 06:37:00,
2013-05-11 01:43:00,49.6,47.1,30.18,West,270,0.0,0.0,91,0.00,,---,0.00,VWS V14.01,2013-05-11 06:43:00,
2013-05-11 01:48:00,49.5,47.0,30.18,West,270,0.0,0.0,91,0.00,,---,0.00,VWS V14.01,2013-05-11 06:48:00,
2013-05-11 01:53:00,49.5,47.0,30.18,West,270,0.0,0.0,91,0.00,,---,0.00,VWS V14.01,2013-05-11 06:53:00,
2013-05-11 01:59:00,49.1,46.6,30.18,West,270,0.0,0.0,91,0.00,,---,0.00,VWS V14.01,2013-05-11 06:59:00,
2013-05-11 02:04:00,49.3,46.8,30.18,West,270,0.0,0.0,91,0.00,,---,0.00,VWS V14.01,2013-05-11 07:04:00,
2013-05-11 02:10:00,49.3,46.8,30.18,West,270,0.0,0.0,91,0.00,,---,0.00,VWS V14.01,2013-05-11 07:10:00,
2013-05-11 02:15:00,49.3,47.1,30.18,West,270,0.0,0.0,92,0.00,,---,0.00,VWS V14.01,2013-05-11 07:15:00,
2013-05-11 02:20:00,49.1,46.9,30.18,West,270,0.0,0.0,92,0.00,,---,0.00,VWS V14.01,2013-05-11 07:20:00,
2013-05-11 02:25:00,49.5,47.0,30.18,West,270,0.0,0.0,91,0.00,,---,0.00,VWS V14.01,2013-05-11 07:25:00,
2013-05-11 02:30:00,49.5,47.2,30.18,West,270,0.0,0.0,92,0.00,,---,0.00,VWS V14.01,2013-05-11 07:30:00,
2013-05-11 02:36:00,49.1,46.9,30.18,West,270,0.0,0.0,92,0.00,,---,0.00,VWS V14.01,2013-05-11 07:36:00,
2013-05-11 02:42:00,48.9,46.7,30.18,West,270,0.0,0.0,92,0.00,,---,0.00,VWS V14.01,2013-05-11 07:42:00,
2013-05-11 02:48:00,49.1,47.2,30.18,West,270,0.0,0.0,93,0.00,,---,0.00,VWS V14.01,2013-05-11 07:48:00,
2013-05-11 02:53:00,48.9,47.0,30.18,West,270,0.0,0.0,93,0.00,,---,0.00,VWS V14.01,2013-05-11 07:53:00,
2013-05-11 02:59:00,48.9,47.0,30.18,West,270,0.0,0.0,93,0.00,,---,0.00,VWS V14.01,2013-05-11 07:59:00,
2013-05-11 03:04:00,48.9,47.0,30.18,West,270,0.0,0.0,93,0.00,,---,0.00,VWS V14.01,2013-05-11 08:04:00,
2013-05-11 03:10:00,49.1,47.2,30.18,West,270,0.0,0.0,93,0.00,,---,0.00,VWS V14.01,2013-05-11 08:10:00,
2013-05-11 03:16:00,49.1,47.2,30.18,West,270,0.0,0.0,93,0.00,,---,0.00,VWS V14.01,2013-05-11 08:16:00,
2013-05-11 03:22:00,49.1,47.5,30.18,West,270,0.0,0.0,94,0.00,,---,0.00,VWS V14.01,2013-05-11 08:22:00,
2013-05-11 03:28:00,48.7,46.8,30.18,West,270,0.0,0.0,93,0.00,,---,0.00,VWS V14.01,2013-05-11 08:28:00,
2013-05-11 03:33:00,48.6,46.6,30.18,West,270,0.0,0.0,93,0.00,,---,0.00,VWS V14.01,2013-05-11 08:33:00,
2013-05-11 03:38:00,48.4,46.5,30.18,West,270,0.0,0.0,93,0.00,,---,0.00,VWS V14.01,2013-05-11 08:38:00,
2013-05-11 03:43:00,48.4,46.5,30.15,West,270,0.0,0.0,93,0.00,,---,0.00,VWS V14.01,2013-05-11 08:43:00,
2013-05-11 03:49:00,48.4,46.7,30.15,West,270,0.0,0.0,94,0.00,,---,0.00,VWS V14.01,2013-05-11 08:49:00,
2013-05-11 03:54:00,48.4,46.7,30.15,West,270,0.0,0.0,94,0.00,,---,0.00,VWS V14.01,2013-05-11 08:54:00,
2013-05-11 04:00:00,48.4,46.7,30.18,West,270,0.0,0.0,94,0.00,,---,0.00,VWS V14.01,2013-05-11 09:00:00,
2013-05-11 04:05:00,48.4,46.7,30.18,West,270,0.0,0.0,94,0.00,,---,0.00,VWS V14.01,2013-05-11 09:05:00,
2013-05-11 04:11:00,48.4,46.7,30.18,West,270,0.0,0.0,94,0.00,,---,0.00,VWS V14.01,2013-05-11 09:11:00,
2013-05-11 04:17:00,48.4,46.7,30.15,West,270,0.0,0.0,94,0.00,,---,0.00,VWS V14.01,2013-05-11 09:17:00,
2013-05-11 04:22:00,48.6,46.9,30.15,West,270,0.0,0.0,94,0.00,,---,0.00,VWS V14.01,2013-05-11 09:22:00,
2013-05-11 04:28:00,48.7,47.1,30.18,West,270,0.0,0.0,94,0.00,,---,0.00,VWS V14.01,2013-05-11 09:28:00,
2013-05-11 04:33:00,48.7,47.1,30.18,West,270,0.0,0.0,94,0.00,,---,0.00,VWS V14.01,2013-05-11 09:33:00,
2013-05-11 04:39:00,48.7,47.1,30.18,West,270,0.0,1.6,94,0.00,,---,0.00,VWS V14.01,2013-05-11 09:39:00,
2013-05-11 04:45:00,48.9,47.3,30.18,West,270,0.0,0.0,94,0.00,,---,0.00,VWS V14.01,2013-05-11 09:45:00,
2013-05-11 04:51:00,49.1,47.5,30.18,WSW,248,0.9,0.9,94,0.00,,---,0.00,VWS V14.01,2013-05-11 09:51:00,
2013-05-11 04:56:00,49.1,47.5,30.18,WSW,248,0.0,0.0,94,0.00,,---,0.00,VWS V14.01,2013-05-11 09:56:00,
2013-05-11 05:02:00,49.1,47.5,30.15,WSW,248,0.0,0.0,94,0.00,,---,0.00,VWS V14.01,2013-05-11 10:02:00,
2013-05-11 05:07:00,48.9,47.3,30.15,WSW,248,0.0,0.0,94,0.00,,---,0.00,VWS V14.01,2013-05-11 10:07:00,
2013-05-11 05:13:00,48.7,47.1,30.15,West,270,0.0,1.1,94,0.00,,---,0.00,VWS V14.01,2013-05-11 10:13:00,
2013-05-11 05:19:00,48.9,47.3,30.15,West,270,0.0,0.0,94,0.00,,---,0.00,VWS V14.01,2013-05-11 10:19:00,
2013-05-11 05:24:00,48.9,47.3,30.15,West,270,0.0,0.0,94,0.00,,---,0.00,VWS V14.01,2013-05-11 10:24:00,
2013-05-11 05:29:00,48.9,47.3,30.15,West,270,0.0,0.0,94,0.00,,---,0.00,VWS V14.01,2013-05-11 10:29:00,
2013-05-11 05:35:00,48.7,47.1,30.15,West,270,0.0,0.0,94,0.00,,---,0.00,VWS V14.01,2013-05-11 10:35:00,
2013-05-11 05:41:00,48.7,47.1,30.15,West,270,0.0,0.0,94,0.00,,---,0.00,VWS V14.01,2013-05-11 10:41:00,
2013-05-11 05:47:00,48.4,46.5,30.15,West,270,0.0,0.0,93,0.00,,---,0.00,VWS V14.01,2013-05-11 10:47:00,
2013-05-11 05:52:00,48.4,46.7,30.15,West,270,0.0,0.0,94,0.00,,---,0.00,VWS V14.01,2013-05-11 10:52:00,
2013-05-11 05:57:00,48.4,46.5,30.15,West,270,0.0,0.0,93,0.00,,---,0.00,VWS V14.01,2013-05-11 10:57:00,
2013-05-11 06:02:00,48.6,46.9,30.15,West,270,0.0,0.0,94,0.00,,---,0.00,VWS V14.01,2013-05-11 11:02:00,
2013-05-11 06:07:00,48.4,46.7,30.15,West,270,0.0,0.0,94,0.00,,---,0.00,VWS V14.01,2013-05-11 11:07:00,
2013-05-11 06:13:00,48.2,46.3,30.18,West,270,0.0,0.0,93,0.00,,---,0.00,VWS V14.01,2013-05-11 11:13:00,
2013-05-11 06:20:00,47.8,46.2,30.18,West,270,0.0,0.0,94,0.00,,---,0.00,VWS V14.01,2013-05-11 11:20:00,
2013-05-11 06:25:00,47.7,46.0,30.18,West,270,0.0,0.0,94,0.00,,---,0.00,VWS V14.01,2013-05-11 11:25:00,
2013-05-11 06:31:00,47.3,45.7,30.18,West,270,0.0,0.0,94,0.00,,---,0.00,VWS V14.01,2013-05-11 11:31:00,
2013-05-11 06:37:00,47.3,45.7,30.18,West,270,0.0,0.0,94,0.00,,---,0.00,VWS V14.01,2013-05-11 11:37:00,
2013-05-11 06:42:00,47.7,46.3,30.18,West,270,0.0,0.0,95,0.00,,---,0.00,VWS V14.01,2013-05-11 11:42:00,
2013-05-11 06:48:00,48.4,47.0,30.18,West,270,0.0,1.1,95,0.00,,---,0.00,VWS V14.01,2013-05-11 11:48:00,
2013-05-11 06:53:00,49.3,47.9,30.18,West,270,0.0,0.0,95,0.00,,---,0.00,VWS V14.01,2013-05-11 11:53:00,
2013-05-11 06:59:00,50.0,48.6,30.18,NW,315,1.3,1.3,95,0.00,,---,0.00,VWS V14.01,2013-05-11 11:59:00,
2013-05-11 07:04:00,50.7,49.3,30.18,NW,315,0.0,0.0,95,0.00,,---,0.00,VWS V14.01,2013-05-11 12:04:00,
2013-05-11 07:09:00,51.4,50.1,30.18,NW,315,0.0,0.0,95,0.00,,---,0.00,VWS V14.01,2013-05-11 12:09:00,
2013-05-11 07:14:00,52.2,50.8,30.18,NW,315,1.6,1.6,95,0.00,,---,0.00,VWS V14.01,2013-05-11 12:14:00,
2013-05-11 07:20:00,53.1,51.7,30.18,NW,315,0.0,0.0,95,0.00,,---,0.00,VWS V14.01,2013-05-11 12:20:00,
2013-05-11 07:26:00,54.1,52.7,30.18,NW,315,0.0,1.6,95,0.00,,---,0.00,VWS V14.01,2013-05-11 12:26:00,
2013-05-11 07:32:00,55.2,53.5,30.18,NNW,338,0.0,2.9,94,0.00,,---,0.00,VWS V14.01,2013-05-11 12:32:00,
2013-05-11 07:37:00,55.9,52.8,30.18,NNW,338,0.0,0.0,89,0.00,,---,0.00,VWS V14.01,2013-05-11 12:37:00,
2013-05-11 07:42:00,56.8,51.7,30.21,NNW,338,0.0,2.5,83,0.00,,---,0.00,VWS V14.01,2013-05-11 12:42:00,
2013-05-11 07:48:00,57.6,51.1,30.21,NW,315,0.9,1.3,79,0.00,,---,0.00,VWS V14.01,2013-05-11 12:48:00,
2013-05-11 07:53:00,58.1,49.9,30.21,WNW,292,7.6,7.6,74,0.00,,---,0.00,VWS V14.01,2013-05-11 12:53:00,
2013-05-11 07:58:00,58.5,49.8,30.21,WSW,248,0.0,4.5,73,0.00,,---,0.00,VWS V14.01,2013-05-11 12:58:00,
2013-05-11 08:03:00,58.8,49.8,30.21,North,0,7.8,7.8,72,0.00,,---,0.00,VWS V14.01,2013-05-11 13:03:00,
2013-05-11 08:08:00,59.2,49.8,30.21,NW,315,2.9,7.2,71,0.00,,---,0.00,VWS V14.01,2013-05-11 13:08:00,
2013-05-11 08:14:00,59.7,49.9,30.21,NNW,338,4.9,7.6,70,0.00,,---,0.00,VWS V14.01,2013-05-11 13:14:00,
2013-05-11 08:20:00,60.3,50.5,30.21,NNE,22,3.6,4.7,70,0.00,,---,0.00,VWS V14.01,2013-05-11 13:20:00,
2013-05-11 08:27:00,60.6,50.4,30.21,North,0,7.6,8.7,69,0.00,,---,0.00,VWS V14.01,2013-05-11 13:27:00,
2013-05-11 08:33:00,61.0,50.4,30.21,NE,45,6.3,12.3,68,0.00,,---,0.00,VWS V14.01,2013-05-11 13:33:00,
2013-05-11 08:38:00,61.3,50.7,30.21,NNE,22,9.0,9.0,68,0.00,,---,0.00,VWS V14.01,2013-05-11 13:38:00,
2013-05-11 08:44:00,61.7,50.2,30.21,North,0,10.3,10.3,66,0.00,,---,0.00,VWS V14.01,2013-05-11 13:44:00,
2013-05-11 08:50:00,61.7,50.2,30.21,NNW,338,6.5,8.5,66,0.00,,---,0.00,VWS V14.01,2013-05-11 13:50:00,
2013-05-11 08:55:00,61.9,50.0,30.21,NNE,22,9.6,12.5,65,0.00,,---,0.00,VWS V14.01,2013-05-11 13:55:00,
2013-05-11 09:01:00,61.9,49.2,30.24,NNW,338,11.0,15.4,63,0.00,,---,0.00,VWS V14.01,2013-05-11 14:01:00,
2013-05-11 09:06:00,61.9,49.2,30.24,NNW,338,10.7,12.5,63,0.00,,---,0.00,VWS V14.01,2013-05-11 14:06:00,
2013-05-11 09:11:00,62.1,49.8,30.24,NE,45,5.6,13.2,64,0.00,,---,0.00,VWS V14.01,2013-05-11 14:11:00,
2013-05-11 09:16:00,62.6,49.4,30.24,ENE,68,7.6,7.6,62,0.00,,---,0.00,VWS V14.01,2013-05-11 14:16:00,
2013-05-11 09:22:00,62.6,47.2,30.24,NE,45,13.0,14.1,57,0.00,,---,0.00,VWS V14.01,2013-05-11 14:22:00,
2013-05-11 09:27:00,63.1,46.2,30.27,ENE,68,11.9,19.9,54,0.00,,---,0.00,VWS V14.01,2013-05-11 14:27:00,
2013-05-11 09:33:00,63.5,46.1,30.27,NE,45,12.3,12.5,53,0.00,,---,0.00,VWS V14.01,2013-05-11 14:33:00,
2013-05-11 09:39:00,63.5,44.5,30.27,NNE,22,15.2,15.2,50,0.00,,---,0.00,VWS V14.01,2013-05-11 14:39:00,
2013-05-11 09:44:00,63.7,44.2,30.27,NE,45,11.4,13.2,49,0.00,,---,0.00,VWS V14.01,2013-05-11 14:44:00,
2013-05-11 09:50:00,63.7,43.6,30.27,NE,45,17.0,17.0,48,0.00,,---,0.00,VWS V14.01,2013-05-11 14:50:00,
2013-05-11 09:55:00,63.5,42.9,30.27,NE,45,8.1,19.5,47,0.00,,---,0.00,VWS V14.01,2013-05-11 14:55:00,
2013-05-11 10:00:00,64.0,43.4,30.27,NE,45,7.6,12.3,47,0.00,,---,0.00,VWS V14.01,2013-05-11 15:00:00,
2013-05-11 10:05:00,64.8,43.5,30.27,NE,45,8.5,12.8,46,0.00,,---,0.00,VWS V14.01,2013-05-11 15:05:00,
2013-05-11 10:11:00,64.6,42.8,30.27,NE,45,6.3,14.8,45,0.00,,---,0.00,VWS V14.01,2013-05-11 15:11:00,
2013-05-11 10:16:00,65.5,43.6,30.27,North,0,5.8,11.0,45,0.00,,---,0.00,VWS V14.01,2013-05-11 15:16:00,
2013-05-11 10:21:00,66.0,44.1,30.27,ENE,68,10.7,10.7,45,0.00,,---,0.00,VWS V14.01,2013-05-11 15:21:00,
2013-05-11 10:26:00,66.0,43.5,30.27,ENE,68,10.5,12.8,44,0.00,,---,0.00,VWS V14.01,2013-05-11 15:26:00,
2013-05-11 10:32:00,66.7,43.5,30.24,NE,45,7.4,11.0,43,0.00,,---,0.00,VWS V14.01,2013-05-11 15:32:00,
2013-05-11 10:37:00,66.2,43.1,30.24,NE,45,11.4,11.4,43,0.00,,---,0.00,VWS V14.01,2013-05-11 15:37:00,
2013-05-11 10:42:00,66.6,43.4,30.27,NE,45,5.4,10.5,43,0.00,,---,0.00,VWS V14.01,2013-05-11 15:42:00,
2013-05-11 10:47:00,66.6,42.2,30.27,ENE,68,10.5,18.8,41,0.00,,---,0.00,VWS V14.01,2013-05-11 15:47:00,
2013-05-11 10:53:00,67.3,43.4,30.27,NNE,22,4.9,6.5,42,0.00,,---,0.00,VWS V14.01,2013-05-11 15:53:00,
2013-05-11 10:58:00,67.6,43.8,30.27,ENE,68,8.1,13.0,42,0.00,,---,0.00,VWS V14.01,2013-05-11 15:58:00,
2013-05-11 11:03:00,67.6,42.5,30.27,NNE,22,15.4,16.6,40,0.00,,---,0.00,VWS V14.01,2013-05-11 16:03:00,
2013-05-11 11:08:00,68.0,42.8,30.27,NNW,338,7.4,9.8,40,0.00,,---,0.00,VWS V14.01,2013-05-11 16:08:00,
2013-05-11 11:13:00,69.3,43.9,30.27,NNE,22,2.9,10.1,40,0.00,,---,0.00,VWS V14.01,2013-05-11 16:13:00,
2013-05-11 11:18:00,68.4,41.8,30.27,NNE,22,10.5,13.0,38,0.00,,---,0.00,VWS V14.01,2013-05-11 16:18:00,
2013-05-11 11:25:00,68.0,40.8,30.27,East,90,6.5,12.5,37,0.00,,---,0.00,VWS V14.01,2013-05-11 16:25:00,
2013-05-11 11:31:00,67.5,38.9,30.30,NNE,22,19.2,19.2,35,0.00,,---,0.00,VWS V14.01,2013-05-11 16:31:00,
2013-05-11 11:36:00,67.8,39.9,30.30,NE,45,17.0,17.0,36,0.00,,---,0.00,VWS V14.01,2013-05-11 16:36:00,
2013-05-11 11:42:00,67.1,38.6,30.30,NE,45,15.7,15.7,35,0.00,,---,0.00,VWS V14.01,2013-05-11 16:42:00,
2013-05-11 11:47:00,67.1,38.6,30.30,NE,45,8.1,17.2,35,0.00,,---,0.00,VWS V14.01,2013-05-11 16:47:00,
2013-05-11 11:52:00,68.0,38.6,30.30,NE,45,13.0,13.0,34,0.00,,---,0.00,VWS V14.01,2013-05-11 16:52:00,
2013-05-11 11:57:00,68.7,40.0,30.30,ENE,68,11.0,15.2,35,0.00,,---,0.00,VWS V14.01,2013-05-11 16:57:00,
2013-05-11 12:03:00,69.1,40.3,30.30,NNW,338,12.8,12.8,35,0.00,,---,0.00,VWS V14.01,2013-05-11 17:03:00,
2013-05-11 12:09:00,68.5,39.1,30.30,NE,45,8.7,10.5,34,0.00,,---,0.00,VWS V14.01,2013-05-11 17:09:00,
2013-05-11 12:14:00,68.5,39.1,30.30,NE,45,9.8,12.8,34,0.00,,---,0.00,VWS V14.01,2013-05-11 17:14:00,
2013-05-11 12:20:00,68.5,39.1,30.30,NE,45,17.2,17.2,34,0.00,,---,0.00,VWS V14.01,2013-05-11 17:20:00,
2013-05-11 12:27:00,68.7,39.2,30.30,NE,45,9.2,11.9,34,0.00,,---,0.00,VWS V14.01,2013-05-11 17:27:00,
2013-05-11 12:32:00,68.7,38.5,30.30,NE,45,10.5,11.2,33,0.00,,---,0.00,VWS V14.01,2013-05-11 17:32:00,
2013-05-11 12:38:00,68.5,38.3,30.30,NNW,338,9.8,11.0,33,0.00,,---,0.00,VWS V14.01,2013-05-11 17:38:00,
2013-05-11 12:43:00,69.3,39.7,30.30,NNW,338,11.0,11.0,34,0.00,,---,0.00,VWS V14.01,2013-05-11 17:43:00,
2013-05-11 12:48:00,68.7,38.5,30.30,NNE,22,7.6,18.1,33,0.00,,---,0.00,VWS V14.01,2013-05-11 17:48:00,
2013-05-11 12:54:00,68.2,36.4,30.30,NE,45,15.7,17.0,31,0.00,,---,0.00,VWS V14.01,2013-05-11 17:54:00,
2013-05-11 12:59:00,68.5,38.3,30.30,NNE,22,5.8,16.8,33,0.00,,---,0.00,VWS V14.01,2013-05-11 17:59:00,
2013-05-11 13:04:00,69.4,39.1,30.30,ENE,68,13.4,13.4,33,0.00,,---,0.00,VWS V14.01,2013-05-11 18:04:00,
2013-05-11 13:10:00,69.8,38.6,30.30,ENE,68,8.7,19.0,32,0.00,,---,0.00,VWS V14.01,2013-05-11 18:10:00,
2013-05-11 13:16:00,69.1,38.0,30.30,NNE,22,6.5,17.0,32,0.00,,---,0.00,VWS V14.01,2013-05-11 18:16:00,
2013-05-11 13:22:00,69.8,38.6,30.30,NE,45,5.4,15.4,32,0.00,,---,0.00,VWS V14.01,2013-05-11 18:22:00,
2013-05-11 13:27:00,69.8,38.6,30.30,ENE,68,10.1,17.7,32,0.00,,---,0.00,VWS V14.01,2013-05-11 18:27:00,
2013-05-11 13:32:00,69.6,38.5,30.30,NE,45,7.6,10.1,32,0.00,,---,0.00,VWS V14.01,2013-05-11 18:32:00,
2013-05-11 13:38:00,69.6,39.3,30.30,NNE,22,17.0,17.0,33,0.00,,---,0.00,VWS V14.01,2013-05-11 18:38:00,
2013-05-11 13:44:00,69.6,38.5,30.33,NE,45,15.2,15.2,32,0.00,,---,0.00,VWS V14.01,2013-05-11 18:44:00,
2013-05-11 13:50:00,70.0,38.8,30.33,NE,45,11.2,14.3,32,0.00,,---,0.00,VWS V14.01,2013-05-11 18:50:00,
2013-05-11 13:55:00,69.8,37.8,30.33,ENE,68,5.8,12.8,31,0.00,,---,0.00,VWS V14.01,2013-05-11 18:55:00,
2013-05-11 14:00:00,70.3,39.1,30.33,North,0,12.5,16.8,32,0.00,,---,0.00,VWS V14.01,2013-05-11 19:00:00,
2013-05-11 14:05:00,70.0,36.3,30.33,NE,45,10.3,15.7,29,0.00,,---,0.00,VWS V14.01,2013-05-11 19:05:00,
2013-05-11 14:10:00,70.5,37.6,30.33,NE,45,13.0,13.0,30,0.00,,---,0.00,VWS V14.01,2013-05-11 19:10:00,
2013-05-11 14:16:00,70.3,38.3,30.33,NE,45,8.1,15.4,31,0.00,,---,0.00,VWS V14.01,2013-05-11 19:16:00,
2013-05-11 14:21:00,71.2,39.9,30.33,NW,315,8.7,8.7,32,0.00,,---,0.00,VWS V14.01,2013-05-11 19:21:00,
2013-05-11 14:26:00,70.9,37.9,30.33,North,0,7.4,16.6,30,0.00,,---,0.00,VWS V14.01,2013-05-11 19:26:00,
2013-05-11 14:31:00,70.5,36.8,30.33,NE,45,10.7,12.5,29,0.00,,---,0.00,VWS V14.01,2013-05-11 19:31:00,
2013-05-11 14:37:00,70.3,39.1,30.33,North,0,7.8,9.8,32,0.00,,---,0.00,VWS V14.01,2013-05-11 19:37:00,
2013-05-11 14:42:00,70.7,39.4,30.33,NE,45,11.0,19.2,32,0.00,,---,0.00,VWS V14.01,2013-05-11 19:42:00,
2013-05-11 14:48:00,70.3,39.1,30.33,NE,45,11.0,15.2,32,0.00,,---,0.00,VWS V14.01,2013-05-11 19:48:00,
2013-05-11 14:54:00,69.8,33.4,30.33,ENE,68,10.7,13.0,26,0.00,,---,0.00,VWS V14.01,2013-05-11 19:54:00,
2013-05-11 14:59:00,70.2,37.3,30.33,NNE,22,9.8,15.2,30,0.00,,---,0.00,VWS V14.01,2013-05-11 19:59:00,
2013-05-11 15:05:00,70.5,36.8,30.33,North,0,5.8,7.4,29,0.00,,---,0.00,VWS V14.01,2013-05-11 20:05:00,
2013-05-11 15:10:00,70.3,36.6,30.33,NE,45,13.0,13.0,29,0.00,,---,0.00,VWS V14.01,2013-05-11 20:10:00,
2013-05-11 15:15:00,69.6,36.0,30.33,NNW,338,8.7,14.3,29,0.00,,---,0.00,VWS V14.01,2013-05-11 20:15:00,
2013-05-11 15:21:00,71.6,39.4,30.33,NE,45,2.0,4.3,31,0.00,,---,0.00,VWS V14.01,2013-05-11 20:21:00,
2013-05-11 15:26:00,70.9,37.1,30.33,NE,45,7.4,15.2,29,0.00,,---,0.00,VWS V14.01,2013-05-11 20:26:00,
2013-05-11 15:31:00,71.2,38.2,30.33,NNE,22,9.6,10.5,30,0.00,,---,0.00,VWS V14.01,2013-05-11 20:31:00,
2013-05-11 15:36:00,71.2,39.1,30.33,ENE,68,7.6,13.0,31,0.00,,---,0.00,VWS V14.01,2013-05-11 20:36:00,
2013-05-11 15:41:00,71.4,40.0,30.33,North,0,8.1,8.1,32,0.00,,---,0.00,VWS V14.01,2013-05-11 20:41:00,
2013-05-11 15:46:00,70.9,38.8,30.30,North,0,15.2,15.2,31,0.00,,---,0.00,VWS V14.01,2013-05-11 20:46:00,
2013-05-11 15:51:00,71.2,39.9,30.30,North,0,5.4,7.6,32,0.00,,---,0.00,VWS V14.01,2013-05-11 20:51:00,
2013-05-11 15:57:00,71.1,39.7,30.30,NE,45,12.5,12.5,32,0.00,,---,0.00,VWS V14.01,2013-05-11 20:57:00,
2013-05-11 16:02:00,70.7,38.6,30.30,North,0,9.6,11.9,31,0.00,,---,0.00,VWS V14.01,2013-05-11 21:02:00,
2013-05-11 16:08:00,71.6,39.4,30.30,NNW,338,4.7,5.8,31,0.00,,---,0.00,VWS V14.01,2013-05-11 21:08:00,
2013-05-11 16:14:00,71.6,37.7,30.30,NE,45,2.5,7.8,29,0.00,,---,0.00,VWS V14.01,2013-05-11 21:14:00,
2013-05-11 16:19:00,71.8,39.5,30.30,NNW,338,4.7,6.5,31,0.00,,---,0.00,VWS V14.01,2013-05-11 21:19:00,
2013-05-11 16:25:00,71.1,38.1,30.30,East,90,7.8,10.3,30,0.00,,---,0.00,VWS V14.01,2013-05-11 21:25:00,
2013-05-11 16:32:00,71.2,38.2,30.30,North,0,16.1,16.1,30,0.00,,---,0.00,VWS V14.01,2013-05-11 21:32:00,
2013-05-11 16:37:00,70.3,35.7,30.30,North,0,8.7,13.6,28,0.00,,---,0.00,VWS V14.01,2013-05-11 21:37:00,
2013-05-11 16:43:00,71.6,38.6,30.27,North,0,10.7,10.7,30,0.00,,---,0.00,VWS V14.01,2013-05-11 21:43:00,
2013-05-11 16:48:00,71.6,38.6,30.27,North,0,8.5,10.3,30,0.00,,---,0.00,VWS V14.01,2013-05-11 21:48:00,
2013-05-11 16:53:00,71.1,36.3,30.27,NNE,22,14.5,14.5,28,0.00,,---,0.00,VWS V14.01,2013-05-11 21:53:00,
2013-05-11 16:58:00,70.9,37.1,30.27,NNE,22,4.7,10.5,29,0.00,,---,0.00,VWS V14.01,2013-05-11 21:58:00,
2013-05-11 17:04:00,70.9,37.9,30.27,NNE,22,8.7,9.2,30,0.00,,---,0.00,VWS V14.01,2013-05-11 22:04:00,
2013-05-11 17:09:00,71.2,39.1,30.27,East,90,3.4,6.3,31,0.00,,---,0.00,VWS V14.01,2013-05-11 22:09:00,
2013-05-11 17:14:00,71.8,38.7,30.27,NE,45,5.6,10.1,30,0.00,,---,0.00,VWS V14.01,2013-05-11 22:14:00,
2013-05-11 17:19:00,71.6,37.7,30.27,NE,45,8.5,8.5,29,0.00,,---,0.00,VWS V14.01,2013-05-11 22:19:00,
2013-05-11 17:25:00,71.2,39.1,30.27,North,0,13.0,13.0,31,0.00,,---,0.00,VWS V14.01,2013-05-11 22:25:00,
2013-05-11 17:32:00,71.2,37.4,30.27,East,90,5.4,6.3,29,0.00,,---,0.00,VWS V14.01,2013-05-11 22:32:00,
2013-05-11 17:37:00,70.7,35.1,30.27,North,0,7.8,12.1,27,0.00,,---,0.00,VWS V14.01,2013-05-11 22:37:00,
2013-05-11 17:42:00,70.7,36.0,30.27,NE,45,4.9,6.0,28,0.00,,---,0.00,VWS V14.01,2013-05-11 22:42:00,
2013-05-11 17:47:00,70.5,35.0,30.27,East,90,2.7,8.7,27,0.00,,---,0.00,VWS V14.01,2013-05-11 22:47:00,
2013-05-11 17:52:00,70.2,34.7,30.27,NNE,22,11.4,16.8,27,0.00,,---,0.00,VWS V14.01,2013-05-11 22:52:00,
2013-05-11 17:58:00,70.0,35.4,30.27,NNE,22,11.0,11.0,28,0.00,,---,0.00,VWS V14.01,2013-05-11 22:58:00,
2013-05-11 18:03:00,69.6,35.1,30.27,North,0,10.7,10.7,28,0.00,,---,0.00,VWS V14.01,2013-05-11 23:03:00,
2013-05-11 18:09:00,69.6,35.1,30.27,North,0,12.3,13.4,28,0.00,,---,0.00,VWS V14.01,2013-05-11 23:09:00,
2013-05-11 18:14:00,69.6,35.1,30.27,NNW,338,6.3,10.1,28,0.00,,---,0.00,VWS V14.01,2013-05-11 23:14:00,
2013-05-11 18:19:00,69.3,33.9,30.27,NE,45,7.4,12.3,27,0.00,,---,0.00,VWS V14.01,2013-05-11 23:19:00,
2013-05-11 18:25:00,69.3,32.9,30.27,NNE,22,5.6,14.3,26,0.00,,---,0.00,VWS V14.01,2013-05-11 23:25:00,
2013-05-11 18:31:00,68.9,31.7,30.27,NE,45,2.9,5.6,25,0.00,,---,0.00,VWS V14.01,2013-05-11 23:31:00,
2013-05-11 18:36:00,69.1,32.8,30.27,ENE,68,6.3,8.1,26,0.00,,---,0.00,VWS V14.01,2013-05-11 23:36:00,
2013-05-11 18:42:00,69.1,32.8,30.27,NNE,22,6.3,10.3,26,0.00,,---,0.00,VWS V14.01,2013-05-11 23:42:00,
2013-05-11 18:47:00,68.5,32.3,30.27,ENE,68,6.0,6.3,26,0.00,,---,0.00,VWS V14.01,2013-05-11 23:47:00,
2013-05-11 18:53:00,68.4,32.2,30.27,NE,45,4.9,6.3,26,0.00,,---,0.00,VWS V14.01,2013-05-11 23:53:00,
2013-05-11 18:58:00,68.2,32.0,30.27,NE,45,7.4,10.3,26,0.00,,---,0.00,VWS V14.01,2013-05-11 23:58:00,
2013-05-11 19:03:00,67.6,31.6,30.27,ENE,68,6.3,6.3,26,0.00,,---,0.00,VWS V14.01,2013-05-12 00:03:00,
2013-05-11 19:08:00,67.5,30.4,30.27,NE,45,8.1,9.4,25,0.00,,---,0.00,VWS V14.01,2013-05-12 00:08:00,
2013-05-11 19:13:00,67.3,30.3,30.27,North,0,6.3,6.3,25,0.00,,---,0.00,VWS V14.01,2013-05-12 00:13:00,
2013-05-11 19:18:00,67.1,31.1,30.27,NNW,338,9.6,10.3,26,0.00,,---,0.00,VWS V14.01,2013-05-12 00:18:00,
2013-05-11 19:24:00,66.9,31.0,30.27,North,0,4.9,10.5,26,0.00,,---,0.00,VWS V14.01,2013-05-12 00:24:00,
2013-05-11 19:29:00,66.6,29.7,30.27,NE,45,5.4,7.6,25,0.00,,---,0.00,VWS V14.01,2013-05-12 00:29:00,
2013-05-11 19:34:00,66.2,29.4,30.27,ENE,68,6.0,6.0,25,0.00,,---,0.00,VWS V14.01,2013-05-12 00:34:00,
2013-05-11 19:39:00,65.5,29.7,30.27,NE,45,6.0,7.4,26,0.00,,---,0.00,VWS V14.01,2013-05-12 00:39:00,
2013-05-11 19:44:00,64.9,29.3,30.27,ENE,68,3.1,8.1,26,0.00,,---,0.00,VWS V14.01,2013-05-12 00:44:00,
2013-05-11 19:49:00,64.4,29.7,30.27,NE,45,2.9,6.5,27,0.00,,---,0.00,VWS V14.01,2013-05-12 00:49:00,
2013-05-11 19:55:00,63.9,30.1,30.27,NE,45,3.8,6.3,28,0.00,,---,0.00,VWS V14.01,2013-05-12 00:55:00,
2013-05-11 20:00:00,63.5,29.8,30.27,NE,45,0.9,3.4,28,0.00,,---,0.00,VWS V14.01,2013-05-12 01:00:00,
2013-05-11 20:05:00,63.1,30.4,30.27,NE,45,6.5,6.5,29,0.00,,---,0.00,VWS V14.01,2013-05-12 01:05:00,
2013-05-11 20:10:00,62.8,29.2,30.27,NNE,22,0.0,8.1,28,0.00,,---,0.00,VWS V14.01,2013-05-12 01:10:00,
2013-05-11 20:15:00,62.4,29.8,30.30,NE,45,4.3,6.0,29,0.00,,---,0.00,VWS V14.01,2013-05-12 01:15:00,
2013-05-11 20:21:00,61.9,30.1,30.30,NE,45,0.9,2.5,30,0.00,,---,0.00,VWS V14.01,2013-05-12 01:21:00,
2013-05-11 20:27:00,61.2,30.3,30.30,NNE,22,0.0,0.0,31,0.00,,---,0.00,VWS V14.01,2013-05-12 01:27:00,
2013-05-11 20:32:00,60.6,30.6,30.30,NNW,338,0.0,0.0,32,0.00,,---,0.00,VWS V14.01,2013-05-12 01:32:00,
2013-05-11 20:37:00,60.1,30.9,30.30,NNE,22,0.0,0.0,33,0.00,,---,0.00,VWS V14.01,2013-05-12 01:37:00,
2013-05-11 20:42:00,59.7,30.6,30.30,North,0,2.5,2.5,33,0.00,,---,0.00,VWS V14.01,2013-05-12 01:42:00,
2013-05-11 20:47:00,59.2,30.9,30.30,North,0,0.0,1.6,34,0.00,,---,0.00,VWS V14.01,2013-05-12 01:47:00,
2013-05-11 20:53:00,58.6,30.4,30.30,North,0,0.0,0.0,34,0.00,,---,0.00,VWS V14.01,2013-05-12 01:53:00,
2013-05-11 20:58:00,58.5,30.9,30.33,North,0,0.0,0.0,35,0.00,,---,0.00,VWS V14.01,2013-05-12 01:58:00,
2013-05-11 21:04:00,57.7,30.3,30.33,North,0,0.0,0.0,35,0.00,,---,0.00,VWS V14.01,2013-05-12 02:04:00,
2013-05-11 21:09:00,56.5,29.9,30.33,North,0,0.0,0.0,36,0.00,,---,0.00,VWS V14.01,2013-05-12 02:09:00,
2013-05-11 21:14:00,55.9,29.4,30.30,North,0,0.0,0.0,36,0.00,,---,0.00,VWS V14.01,2013-05-12 02:14:00,
2013-05-11 21:19:00,54.9,29.1,30.30,North,0,0.0,0.0,37,0.00,,---,0.00,VWS V14.01,2013-05-12 02:19:00,
2013-05-11 21:24:00,54.3,29.3,30.30,North,0,0.0,0.0,38,0.00,,---,0.00,VWS V14.01,2013-05-12 02:24:00,
2013-05-11 21:30:00,53.8,29.4,30.30,North,0,0.0,0.0,39,0.00,,---,0.00,VWS V14.01,2013-05-12 02:30:00,
2013-05-11 21:36:00,52.9,29.2,30.30,North,0,0.0,0.0,40,0.00,,---,0.00,VWS V14.01,2013-05-12 02:36:00,
2013-05-11 21:41:00,52.3,30.0,30.30,North,0,0.0,0.0,42,0.00,,---,0.00,VWS V14.01,2013-05-12 02:41:00,
2013-05-11 21:47:00,51.8,31.7,30.33,North,0,0.0,0.0,46,0.00,,---,0.00,VWS V14.01,2013-05-12 02:47:00,
2013-05-11 21:52:00,51.3,31.2,30.33,North,0,0.0,0.0,46,0.00,,---,0.00,VWS V14.01,2013-05-12 02:52:00,
2013-05-11 21:58:00,51.3,31.7,30.33,NW,315,0.0,0.0,47,0.00,,---,0.00,VWS V14.01,2013-05-12 02:58:00,
2013-05-11 22:04:00,50.7,31.8,30.33,NW,315,0.0,0.0,48,0.00,,---,0.00,VWS V14.01,2013-05-12 03:04:00,
2013-05-11 22:09:00,50.2,31.8,30.33,NW,315,0.0,0.0,49,0.00,,---,0.00,VWS V14.01,2013-05-12 03:09:00,
2013-05-11 22:14:00,50.0,32.1,30.33,NW,315,0.0,0.0,50,0.00,,---,0.00,VWS V14.01,2013-05-12 03:14:00,
2013-05-11 22:19:00,49.5,32.6,30.33,NW,315,0.0,0.0,52,0.00,,---,0.00,VWS V14.01,2013-05-12 03:19:00,
2013-05-11 22:24:00,49.3,35.6,30.33,NW,315,0.0,0.0,59,0.00,,---,0.00,VWS V14.01,2013-05-12 03:24:00,
2013-05-11 22:29:00,48.9,35.7,30.33,NW,315,0.0,0.0,60,0.00,,---,0.00,VWS V14.01,2013-05-12 03:29:00,
2013-05-11 22:35:00,48.6,35.3,30.33,NW,315,0.0,0.0,60,0.00,,---,0.00,VWS V14.01,2013-05-12 03:35:00,
2013-05-11 22:41:00,48.2,36.2,30.33,NW,315,0.0,0.0,63,0.00,,---,0.00,VWS V14.01,2013-05-12 03:41:00,
2013-05-11 22:46:00,47.8,36.3,30.33,NW,315,0.0,0.0,64,0.00,,---,0.00,VWS V14.01,2013-05-12 03:46:00,
2013-05-11 22:52:00,47.8,35.9,30.33,NW,315,0.0,0.0,63,0.00,,---,0.00,VWS V14.01,2013-05-12 03:52:00,
2013-05-11 22:57:00,47.5,35.9,30.33,NW,315,0.0,0.0,64,0.00,,---,0.00,VWS V14.01,2013-05-12 03:57:00,
2013-05-11 23:01:00,47.3,35.8,30.33,NW,315,0.0,0.0,64,0.00,,---,0.00,VWS V14.01,2013-05-12 04:01:00,
2013-05-11 23:02:00,47.3,36.2,30.33,NW,315,0.0,0.0,65,0.00,,---,0.00,VWS V14.01,2013-05-12 04:02:00,
2013-05-11 23:05:00,47.1,35.6,30.33,NW,315,0.0,0.0,64,0.00,,---,0.00,VWS V14.01,2013-05-12 04:05:00,
2013-05-11 23:06:00,47.1,36.0,30.33,NW,315,0.0,0.0,65,0.00,,---,0.00,VWS V14.01,2013-05-12 04:06:00,
2013-05-11 23:11:00,46.9,35.8,30.33,NW,315,0.0,0.0,65,0.00,,---,0.00,VWS V14.01,2013-05-12 04:11:00,
2013-05-11 23:17:00,46.6,36.2,30.33,NW,315,0.0,0.0,67,0.00,,---,0.00,VWS V14.01,2013-05-12 04:17:00,
2013-05-11 23:23:00,46.4,36.0,30.33,NW,315,0.0,0.0,67,0.00,,---,0.00,VWS V14.01,2013-05-12 04:23:00,
2013-05-11 23:29:00,46.2,36.6,30.33,NW,315,0.0,0.0,69,0.00,,---,0.00,VWS V14.01,2013-05-12 04:29:00,
2013-05-11 23:35:00,46.0,37.2,30.33,NW,315,0.0,0.0,71,0.00,,---,0.00,VWS V14.01,2013-05-12 04:35:00,
2013-05-11 23:40:00,45.9,36.6,30.33,NW,315,0.0,0.0,70,0.00,,---,0.00,VWS V14.01,2013-05-12 04:40:00,
2013-05-11 23:47:00,46.0,37.9,30.33,NW,315,0.0,0.0,73,0.00,,---,0.00,VWS V14.01,2013-05-12 04:47:00,
2013-05-11 23:54:00,45.7,37.5,30.33,NW,315,0.0,0.0,73,0.00,,---,0.00,VWS V14.01,2013-05-12 04:54:00,
2013-05-11 23:59:00,45.1,37.4,30.30,NW,315,0.0,0.0,74,0.00,,---,0.00,VWS V14.01,2013-05-12 04:59:00,